CDT,Max TemperatureF,Mean TemperatureF,Min TemperatureF,Max Dew PointF,MeanDew PointF,Min DewpointF,Max Humidity, Mean Humidity, Min Humidity, Max Sea Level PressureIn, Mean Sea Level PressureIn, Min Sea Level PressureIn, Max VisibilityMiles, Mean VisibilityMiles, Min VisibilityMiles, Max Wind SpeedMPH, Mean Wind SpeedMPH, Max Gust SpeedMPH,PrecipitationIn, CloudCover, Events, WindDirDegrees
2012-10-1,71,56,42,48,35,21,72,41,16,30.05,29.99,29.89,10,10,7,26,14,34,0.00,1,Rain,336
2012-10-2,75,54,33,36,25,16,87,39,11,29.99,29.87,29.77,10,10,10,18,6,25,0.00,0,,187
2012-10-3,80,60,39,30,25,16,65,29,9,29.85,29.79,29.67,10,10,7,15,6,22,0.00,0,,130
2012-10-4,59,48,37,41,34,27,93,69,39,30.23,30.05,29.68,10,10,2,34,23,44,0.00,7,,299
2012-10-5,46,38,30,28,26,23,86,62,43,30.26,30.22,30.20,10,10,10,24,15,32,0.00,3,,303
2012-10-6,44,36,28,30,25,19,93,65,39,30.36,30.29,30.23,10,10,10,20,13,24,0.00,5,,324
2012-10-7,57,42,26,23,18,9,80,45,14,30.23,30.01,29.81,10,10,5,20,8,25,0.00,0,,217
2012-10-8,66,50,35,37,30,18,76,48,31,29.80,29.68,29.57,10,10,10,24,7,31,0.00,3,Rain,230
2012-10-9,48,44,39,36,28,21,76,54,39,30.03,29.87,29.73,10,10,4,25,12,32,0.00,6,Rain,297
2012-10-10,57,40,24,30,24,18,100,53,21,30.08,29.98,29.77,10,10,7,18,7,30,0.00,2,,238
2012-10-11,53,40,26,36,26,16,87,56,27,30.41,30.15,29.79,10,10,7,18,11,25,0.00,1,,339
2012-10-12,57,37,17,23,15,10,93,49,16,30.42,30.22,29.89,10,10,10,21,6,28,0.00,2,,152
2012-10-13,66,54,41,46,41,18,87,65,24,29.88,29.73,29.65,10,9,7,18,7,24,0.00,2,Rain,180
2012-10-14,60,48,35,37,32,28,81,59,29,29.94,29.87,29.77,10,6,1,22,12,28,0.00,0,,326
2012-10-15,68,48,28,37,33,27,100,59,28,29.94,29.82,29.62,10,9,1,16,5,21,0.01,1,,168
2012-10-16,75,60,46,45,41,37,71,46,29,29.62,29.46,29.29,10,10,7,9,3,,0.00,1,,216
2012-10-17,57,50,44,52,44,39,88,76,59,29.33,29.24,29.10,10,10,5,28,13,32,0.09,7,Rain,295
2012-10-18,48,45,42,46,43,39,93,90,81,29.46,29.29,29.17,10,6,2,32,19,46,0.36,8,Rain,315
2012-10-19,44,43,42,41,40,39,93,87,81,29.76,29.67,29.48,10,10,5,36,23,45,0.09,8,Rain,329
2012-10-20,53,45,37,45,41,36,100,86,67,29.78,29.73,29.68,10,9,0,15,5,18,0.00,4,Fog,155
2012-10-21,55,48,42,46,44,41,93,85,72,29.96,29.79,29.67,10,9,3,16,9,21,0.00,1,,40
2012-10-22,62,52,42,48,45,41,93,76,55,29.98,29.92,29.83,10,10,7,17,11,22,0.00,5,Rain,56
2012-10-23,62,56,51,57,54,46,100,89,77,29.82,29.72,29.64,10,4,0,12,6,,0.00,7,Fog-Rain,128
2012-10-24,55,47,39,54,41,36,100,82,66,29.94,29.88,29.80,10,10,5,23,13,30,0.00,6,,335
2012-10-25,39,36,33,36,30,25,93,77,60,30.21,30.01,29.89,10,9,2,25,19,31,0.05,7,Snow,318
2012-10-26,41,36,32,27,24,21,80,62,45,30.37,30.32,30.22,10,10,10,20,12,26,0.00,7,,280
2012-10-27,44,32,21,28,23,18,100,67,34,30.35,30.29,30.24,10,10,10,12,5,16,0.00,3,,196
2012-10-28,50,42,35,32,30,27,81,67,47,30.28,30.23,30.17,10,10,10,13,5,17,0.00,5,Snow,151
2012-10-29,55,46,37,30,29,27,75,57,36,30.19,30.16,30.12,10,10,10,17,12,23,0.00,3,,138
2012-10-30,46,39,32,32,28,25,87,64,46,30.18,30.14,30.07,10,10,7,13,8,17,0.00,6,,120
2012-10-31,57,42,26,39,31,25,93,68,36,30.09,30.00,29.93,10,8,2,17,1,21,0.00,3,,179